Location: Ettringen
(48.1054°N, 10.6545°E)
Time: 06:17:26
(UTC+00:00)

Cosmos 1802 Rocket - Pass Details

Date: 18 November 2025
Orbit: 953 x 1011 km, 82.9° (Epoch: 10 December)

Event Time Altitude Azimuth Distance (km) Brightness Sun altitude
Rises 16:08:54 0° 193° (SSW) 3,729 7.6 -5.8°
Reaches altitude 10° 16:11:26 10° 195° (SSW) 2,784 7.0 -6.2°
Maximum altitude 16:17:50 74° 280° (W) 1,053 4.4 -7.2°
Drops below altitude 10° 16:24:17 10° 6° (N) 2,791 6.1 -8.2°
Sets 16:26:50 0° 8° (N) 3,739 6.8 -8.6°
